Hourly Data Report for February 02, 2019

MIRAMICHI RCS
NEW BRUNSWICK
Current Station Operator: ECCC - MSC

47°00'34.000" N
65°27'54.000" W
33.00 m
8100989
71744
ACQ

Download Data

Hourly Data (February 2019)
Hourly Data Report for February 2, 2019
TIME
LST
Temp Definition
°C
Dew Point Definition
°C
Rel Hum Definition
%
Precip. Amount Definition
mm

Wind Dir Definition
10's deg

Wind Spd Definition
km/h
Visibility Definition
km
Stn Press Definition
kPa
Hmdx Definition


Wind Chill Definition


Weather Definition


00:00 -15.3 -21.8 58 0.0 25 17   100.99   -24 LegendNANA
01:00 -15.3 -21.8 58 0.0 25 20   101.02   -25 LegendNANA
02:00 -15.9 -22.0 59 0.0 25 15   101.05   -24 LegendNANA
03:00 -16.3 -22.3 60 0.0 24 23   101.05   -26 LegendNANA
04:00 -16.6 -22.5 60 0.0 24 25   101.03   -27 LegendNANA
05:00 -16.4 -22.6 59 0.0 24 26   101.05   -27 LegendNANA
06:00 -16.7 -22.8 59 0.0 24 23   101.06   -27 LegendNANA
07:00 -16.8 -22.8 59 0.0 25 24   101.05   -27 LegendNANA
08:00 -16.7 -22.9 58 0.0 24 18   101.09   -26 LegendNANA
09:00 -15.9 -22.6 56 0.0 25 24   101.05   -26 LegendNANA
10:00 -14.7 -22.3 52 0.0 25 23   101.04   -24 LegendNANA
11:00 -13.7 -21.5 52 0.0 25 25   101.00   -24 LegendNANA
12:00 -13.0 -21.3 50 0.0 26 22   100.88   -22 LegendNANA
13:00 -13.0 -20.7 53 0.0 24 19   100.73   -21 LegendNANA
14:00 -13.0 -18.4 64 0.0 23 20   100.60   -22 LegendNANA
15:00 -12.2 -16.2 72 0.0 23 16   100.46   -20 LegendNANA
16:00 -11.8 -16.2 70 0.0 24 22   100.39   -21 LegendNANA
17:00 -12.1 -15.5 76 0.0 23 25   100.33   -21 LegendNANA
18:00 -12.2 -15.7 75 0.0 24 19   100.28   -20 LegendNANA
19:00 -12.3 -15.5 77 0.0 24 16   100.24   -20 LegendNANA
20:00 -12.4 -15.7 76 0.0 24 13   100.23   -19 LegendNANA
21:00 -13.1 -16.1 78 0.0 25 12   100.27   -20 LegendNANA
22:00 -14.0 -16.7 80 0.0 25 14   100.28   -21 LegendNANA
23:00 -15.3 -17.6 83 0.0 27 9   100.39   -21 LegendNANA

Notes on Data Quality.

Legend

  • E = Estimated
  • M = Missing
  • NA = Not Available*
  • [empty] = Indicates an unobserved value
Date modified: